Tucson Davis Monthan, AZ

6:18 PM MST on May 24, 2017 (GMT -0700)
Davis-Monthan Air Force Base

Weather History for KDMA - July, 2013

Change the Weather History Date:

Friday, July 26, 2013

  Actual Average Record
Temperature  
Mean Temperature 84 °F -  
Max Temperature 95 °F 98 °F 105 °F (1985)
Min Temperature 73 °F 73 °F 68 °F (1965)
Cooling Degree Days 19    
Growing Degree Days 34 (Base 50)    
Moisture  
Dew Point 67 °F    
Average Humidity 67    
Maximum Humidity 83    
Minimum Humidity 32    
Precipitation  
Precipitation 0.58 in - - ()
Sea Level Pressure  
Sea Level Pressure 30.03 in    
Wind  
Wind Speed 9 mph (NNW)    
Max Wind Speed 41 mph    
Max Gust Speed 52 mph    
Visibility 8 miles    
Events Rain , Thunderstorm    
Averages and records for this station are not official NWS values.
T = Trace of Precipitation, MM = Missing Value Source: NWS Daily Summary

Daily Weather History Graph

Daily Weather History Graph

Search for Another Location

Airport or City:

Trip Planner

Search our weather history database for the weather conditions in past years. The results will help you decide how hot, cold, wet, or windy it might be!

Date:

Astronomy

Jul. 26, 2013 Rise Set
Actual Time 5:34 AM MST 7:24 PM MST
Civil Twilight 5:07 AM MST 7:51 PM MST
Nautical Twilight 4:35 AM MST 8:24 PM MST
Astronomical Twilight 4:00 AM MST 8:59 PM MST
Moon 10:02 PM MST (7/26) 9:54 AM MST (7/26)
Length of Visible Light 14h 44m
Length of Day
13h 50m
Waning Gibbous, 79% of the Moon is Illuminated
Jul 26
Waning Gibbous
Jul 29
Last Quarter
Aug 6
New
Aug 14
First Quarter
Aug 20
Full

Hourly Weather History & Observations

Time (MST) Temp. Heat Index Dew Point Humidity Pressure Visibility Wind Dir Wind Speed Gust Speed Precip Events Conditions
12:58 AM 76.8 °F - 68.0 °F 74% 29.95 in 10.0 mi SE 5.8 mph - N/A   Partly Cloudy
1:58 AM 77.5 °F - 67.5 °F 71% 29.94 in 10.0 mi East 4.6 mph - N/A   Clear
2:58 AM 76.6 °F - 66.9 °F 72% 29.96 in 10.0 mi East 4.6 mph - N/A   Clear
3:58 AM 75.9 °F - 67.5 °F 75% 29.97 in 10.0 mi SE 5.8 mph - N/A   Clear
4:58 AM 75.4 °F - 67.3 °F 76% 29.99 in 10.0 mi Calm Calm - N/A   Clear
5:58 AM 73.9 °F - 67.5 °F 80% 30.00 in 10.0 mi SSE 5.8 mph - N/A   Clear
6:58 AM 76.5 °F - 67.6 °F 74% 30.02 in 10.0 mi SE 5.8 mph - N/A   Clear
7:58 AM 80.2 °F 82.8 °F 68.0 °F 66% 30.03 in 10.0 mi SE 5.8 mph - N/A   Clear
8:58 AM 85.3 °F 87.4 °F 65.7 °F 52% 30.02 in 10.0 mi SW 2.3 mph - N/A   Clear
9:58 AM 88.7 °F 90.1 °F 64.2 °F 44% 30.01 in 10.0 mi Variable 3.5 mph - N/A   Clear
10:58 AM 90.9 °F 92.3 °F 64.4 °F 41% 29.99 in 10.0 mi SSW 4.6 mph - N/A   Clear
11:58 AM 92.1 °F 93.6 °F 63.7 °F 39% 29.98 in 10.0 mi Variable 2.3 mph - N/A   Clear
12:49 PM 95.0 °F 95.2 °F 60.8 °F 32% 30.09 in 10.0 mi NNW 12.7 mph 17.3 mph N/A   Clear
12:58 PM 94.3 °F 95.3 °F 62.6 °F 35% 29.95 in 10.0 mi NNW 13.8 mph - N/A   Scattered Clouds
1:52 PM 87.8 °F 90.4 °F 66.2 °F 49% 30.08 in 10.0 mi WSW 19.6 mph 23.0 mph N/A Thunderstorm Thunderstorm
1:53 PM 87.8 °F 90.4 °F 66.2 °F 49% 30.08 in 10.0 mi WSW 19.6 mph 23.0 mph N/A Rain , Thunderstorm Light Thunderstorms and Rain
1:58 PM 87.8 °F 90.4 °F 66.2 °F 49% 29.96 in 10.0 mi WSW 16.1 mph 23.0 mph 0.00 in Rain , Thunderstorm Light Thunderstorms and Rain
2:03 PM 86.0 °F 89.4 °F 68.0 °F 55% 30.11 in 2.5 mi West 24.2 mph 33.4 mph N/A Rain , Thunderstorm Light Thunderstorms and Rain
2:05 PM 82.4 °F 86.3 °F 69.8 °F 66% 30.12 in 1.0 mi West 19.6 mph 33.4 mph N/A Rain , Thunderstorm Heavy Thunderstorms and Rain
2:10 PM 78.8 °F - 69.8 °F 74% 30.11 in 0.5 mi WNW 28.8 mph 35.7 mph N/A Rain , Thunderstorm Heavy Thunderstorms and Rain
2:15 PM 75.2 °F - 68.0 °F 78% 30.11 in 0.5 mi NW 41.4 mph 51.8 mph N/A Rain , Thunderstorm Heavy Thunderstorms and Rain
2:18 PM 75.2 °F - 68.0 °F 78% 30.10 in 0.5 mi NNW 33.4 mph 51.8 mph N/A Rain , Thunderstorm Heavy Thunderstorms and Rain
2:23 PM 73.4 °F - 66.2 °F 78% 30.10 in 0.5 mi NNW 23.0 mph 51.8 mph N/A Rain , Thunderstorm Heavy Thunderstorms and Rain
2:28 PM 73.4 °F - 66.2 °F 78% 30.10 in 1.0 mi NNW 15.0 mph 44.9 mph N/A Rain , Thunderstorm Heavy Thunderstorms and Rain
2:33 PM 73.4 °F - 68.0 °F 83% 30.10 in 4.0 mi North 17.3 mph - N/A Rain , Thunderstorm Light Thunderstorms and Rain
2:37 PM 75.2 °F - 68.0 °F 78% 30.10 in 10.0 mi NNE 10.4 mph - N/A Thunderstorm Light Drizzle
2:38 PM 75.2 °F - 68.0 °F 78% 30.10 in 10.0 mi North 9.2 mph - N/A Thunderstorm Scattered Clouds
2:41 PM 75.2 °F - 69.8 °F 83% 30.10 in 10.0 mi NNE 8.1 mph - N/A Rain , Thunderstorm Light Rain
2:44 PM 77.0 °F - 69.8 °F 78% 30.11 in 10.0 mi North 9.2 mph - N/A Rain , Thunderstorm Light Thunderstorms and Rain
2:51 PM 77.0 °F - 69.8 °F 78% 30.11 in 10.0 mi North 9.2 mph - N/A Thunderstorm Thunderstorm
2:58 PM 77.4 °F - 69.4 °F 76% 30.00 in 10.0 mi North 8.1 mph - 0.58 in Thunderstorm Thunderstorm
2:59 PM 77.0 °F - 69.8 °F 78% 30.11 in 10.0 mi NNE 8.1 mph - N/A Thunderstorm Clear
3:58 PM 78.6 °F - 66.9 °F 67% 29.98 in 10.0 mi NE 8.1 mph - N/A Thunderstorm Partly Cloudy
4:58 PM 79.9 °F - 67.6 °F 66% 29.97 in 10.0 mi NW 2.3 mph - N/A   Clear
5:58 PM 82.2 °F 85.1 °F 67.8 °F 62% 29.95 in 10.0 mi South 3.5 mph - N/A   Clear
6:58 PM 82.9 °F 85.2 °F 66.4 °F 57% 29.95 in 10.0 mi Calm Calm - N/A   Clear
7:58 PM 81.0 °F 84.2 °F 69.4 °F 68% 29.97 in 10.0 mi East 5.8 mph - N/A   Mostly Cloudy
8:58 PM 79.3 °F - 70.5 °F 74% 29.98 in 10.0 mi South 4.6 mph - N/A   Mostly Cloudy
9:58 PM 79.0 °F - 68.2 °F 69% 29.98 in 10.0 mi South 5.8 mph - N/A   Partly Cloudy
10:58 PM 77.4 °F - 68.5 °F 74% 29.98 in 10.0 mi SSW 8.1 mph - N/A   Clear
11:58 PM 77.2 °F - 68.7 °F 75% 29.97 in 10.0 mi South 4.6 mph - N/A   Clear